Hallock, MN (56728)

6:10 AM CDT on March 26, 2017 (GMT -0500)
Hallock Municipal | | Change Station
Active Advisory: Flood Warning

Elev 817 ft 48.75 °N, 96.94 °W | Updated 16 minutes ago

Mostly Cloudy
Mostly Cloudy
34 °F
Feels Like 26 °F
N
10
Wind Variable Wind from SSE

Today
High -- | Low -- °F
--% Chance of Precip.
Yesterday
High -- | Low -- °F
Precip. -- in
Pressure 29.96 in
Visibility 7.0 miles
Clouds Clear
Windchill 26 °F
Dew Point 32 °F
Humidity 93%
Rainfall 0.00 in
Snow Depth Not available.
7:17 AM 7:50 PM
Waning Crescent, 4% visible
METAR KHCO 261054Z AUTO 16009KT 7SM CLR 01/00 A2996 RMK AO2
Pressure 29.96 in
Visibility 7.0 miles
Clouds Clear
Windchill 26 °F
Dew Point 32 °F
Humidity 93%
Rainfall 0.00 in
Snow Depth Not available.
7:17 AM 7:50 PM
Waning Crescent, 4% visible
METAR KHCO 261054Z AUTO 16009KT 7SM CLR 01/00 A2996 RMK AO2

Get Your Daily Forecast Email!

Thanks for signing up!

Be on the lookout for a verification email in your inbox.

You'll start receiving severe weather alerts in your inbox..

×

10-Day Weather Forecast

Almanac

Astronomy

Mar. 26, 2017 Rise Set
Actual Time
Civil Twilight
Nautical Twilight
Astronomical Twilight
Moon
Length of Visible Light
Length of Day
Tomorrow will be .
, % of the Moon is Illuminated

Today's Extremes

State Highs State Lows

Community

WunderPhotos

Upload Photos

1,962,540 photos uploaded!

WunderBlog® & News

Nearby

Air Quality

  Air Quality AQ Index Pollutant
Not available.

Snow Depth

Station Depth Elevation

Earthquake Activity

City Distance Mag. Time & Date
Minimum magnitude displayed is 2.5.

Earthquake Activity

City Distance Mag. Time & Date
Minimum magnitude displayed is 2.5.

Coastal Water Temperatures

Place Temperature

Stations

Nearby Weather Stations

Station Location Temp. Windchill Dew Point Humidity Wind Precip. Elev Updated Type
                   

Watches & Warnings

Flood Warning
Issued: 8:56 PM CDT Mar. 25, 2017 – National Weather Service

The Flood Warning continues for...
* ... Hallock... on the Two Rivers river.
* Until further notice... or until the warning is cancelled.
* At 8:00 PM Saturday the stage was 803.0 feet.
* Minor flooding is occurring and during the next 7 days... minor
flooding is forecast.
* Minor flood stage is 802.0 feet.
* Forecast... the river will continue rising to near 805.0 feet by
sometime Thursday, then begin falling.
* The river is forecast to crest at 805.0 on Thursday evening during
this 7-day period.
* Impact statement(s) - at 804.5 feet, backup at reach 2 dike,
cemetery Road at 6th St. S. - Shut storm valve.


Daily 7pm CDT/6pm CST forecast stage in feet:

date sun Mon Tue Wed Thu Fri Sat
(month/day) 03/26 03/27 03/28 03/29 03/30 03/31 04/01
Hallock 802.8 802.9 803.5 804.5 805.0 804.9 804.5

lat... Lon 4888 9719 4873 9713 4867 9662 4885 9667